Dewpoint
26 27 26 27 27 28 30 28 28 34 36 36 34 34 34 35 36 36 38 37 37 39 41 43 44 45 46
26 26 27 28 28 28 27 26 27 31 34 35 35 34 34 32 35 35 36 36 39 37 39 39 42 44 46
26 27 27 29 29 29 29 29 28 33 33 34 35 35 33 32 33 36 37 37 36 38 40 41 41 43 45
27 28 29 31 30 29 29 30 29 27 30 32 33 35 34 33 34 37 39 37 36 37 39 41 43 43 45
27 27 28 29 27 28 29 29 29 30 30 30 30 31 31 34 34 36 36 36 37 35 37 37 40 42 42
26 26 25 26 27 27 27 27 25 28 30 30 31 30 31 32 35 35 36 36 36 34 37 37 38 41 41
31 30 29 27 27 27 28 29 28 29 30 31 31 29 30 30 34 34 34 35 35 37 38 39 38 38 41
31 31 32 32 31 29 29 30 31 31 34 30 32 30 30 30 34 34 35 36 36 37 38 38 39 41 42
32 32 32 32 33 32 33 31 28 27 32 32 30 29 30 30 31 35 36 36 36 34 33 32 33 38 40
33 33 33 33 34 33 32 31 30 27 29 31 29 29 25 29 30 32 32 35 33 33 32 31 32 34 37
26 27 28 30 31 31 32 32 30 28 30 33 30 26 25 27 29 29 30 30 30 30 30 31 33 33 34
25 25 26 29 30 31 31 31 32 32 32 33 32 29 25 25 25 27 29 31 29 28 28 30 33 31 31
24 24 25 27 30 32 30 30 30 31 31 32 33 32 30 27 25 24 25 26 29 28 28 29 27 28 28
25 25 26 26 26 29 29 28 28 29 30 32 32 31 30 30 29 28 24 26 25 28 27 27 29 29 29
26 25 25 25 25 26 28 29 28 27 26 28 31 31 29 28 28 28 29 30 30 29 26 24 26 28 29
25 25 25 25 24 25 25 27 26 26 24 24 28 29 24 26 32 28 30 30 26 26 26 25 25 27 28
24 24 24 25 24 24 24 25 26 26 27 26 24 27 23 21 24 32 29 28 22 20 23 23 22 26 27
Lifted_Index
21 21 21 20 19 18 17 16 15 12 10 9 9 9 9 9 9 9 10 12 13 14 14 13 12 12 12
20 20 19 18 17 15 14 13 12 11 9 8 7 7 7 8 7 7 8 9 11 13 13 13 13 12 12
17 17 16 14 13 12 11 10 10 9 8 7 7 6 6 6 6 6 6 7 8 10 11 12 12 12 12
14 14 12 11 10 10 9 9 9 8 8 7 7 6 6 6 6 5 5 5 6 7 8 9 11 11 11
12 11 10 10 9 9 9 8 8 8 7 7 6 6 6 5 5 5 5 5 5 6 6 7 9 10 10
10 10 9 9 9 8 8 8 8 7 7 6 5 5 5 5 5 5 5 5 5 5 5 6 7 8 9
9 9 9 8 8 8 8 7 7 6 6 5 5 5 5 5 4 4 4 4 4 3 4 4 5 6 7
9 9 9 8 8 7 7 7 6 6 5 5 5 5 4 4 4 3 3 3 3 3 3 4 5 5 5
10 9 9 8 7 7 6 6 6 5 5 5 4 4 4 3 3 3 3 2 2 3 4 5 5 5 5
10 10 9 8 8 7 6 6 5 5 5 4 4 3 3 3 3 3 3 2 2 3 5 6 6 6 5
11 11 10 9 8 7 6 6 6 5 4 4 3 3 3 3 3 3 3 3 3 4 5 6 6 6 6
11 11 10 9 8 7 6 6 6 5 4 4 3 3 3 3 3 3 3 3 3 3 4 5 5 6 6
12 11 11 10 9 7 7 6 6 5 5 4 3 3 3 3 3 3 3 2 2 2 2 3 4 5 5
12 12 11 10 9 8 7 6 6 5 5 4 4 3 3 3 3 3 3 2 2 1 1 2 3 4 4
13 12 12 11 10 9 8 7 6 5 5 4 4 3 3 3 3 3 3 2 2 1 2 2 3 3 4
13 13 12 11 10 9 8 7 6 6 5 5 4 3 3 3 3 3 3 3 2 2 2 3 3 3 3
13 13 12 11 10 9 9 8 7 6 5 5 4 4 3 3 3 3 3 3 3 3 3 3 3 3 3